Weather History for PASI - November, 2012

Change the Weather History Date:

Wednesday, November 7, 2012

  Actual Average Record
Temperature  
Mean Temperature 38 °F -  
Max Temperature 44 °F 44 °F 55 °F (2002)
Min Temperature 33 °F 35 °F 21 °F (2006)
Degree Days  
Heating Degree Days 26    
Moisture  
Dew Point 35 °F    
Average Humidity 87    
Maximum Humidity 100    
Minimum Humidity 67    
Precipitation  
Precipitation 0.01 in - - ()
Sea Level Pressure  
Sea Level Pressure 30.06 in    
Wind  
Wind Speed 5 mph (East)    
Max Wind Speed 10 mph    
Max Gust Speed -    
Visibility 10 miles    
Events Rain    
Averages and records for this station are not official NWS values.
T = Trace of Precipitation, MM = Missing Value Source: NWS Daily Summary

Daily Weather History Graph

Daily Weather History Graph

Search for Another Location

Airport or City:

Trip Planner

Search our weather history database for the weather conditions in past years. The results will help you decide how hot, cold, wet, or windy it might be!

Date:

Astronomy

Nov. 07, 2012 Rise Set
Actual Time 7:27 AM AKST 4:02 PM AKST
Civil Twilight 6:44 AM AKST 4:44 PM AKST
Nautical Twilight 5:58 AM AKST 5:30 PM AKST
Astronomical Twilight 5:13 AM AKST 6:15 PM AKST
Moon No Moon Rise 1:27 PM AKST (11/7)
Length of Visible Light 10h 00m
Length of Day
8h 35m
Last Quarter, 41% of the Moon is Illuminated
Nov 7
Last Quarter
Nov 13
New
Nov 20
First Quarter
Nov 28
Full
Dec 6
Last Quarter

Hourly Weather History & Observations

Time (AKST) Temp. Windchill Dew Point Humidity Pressure Visibility Wind Dir Wind Speed Gust Speed Precip Events Conditions
12:53 AM 42.1 °F 37.7 °F 39.0 °F 89% 29.77 in 10.0 mi SSE 6.9 mph - 0.00 in   Overcast
1:53 AM 42.1 °F 37.1 °F 37.9 °F 85% 29.81 in 10.0 mi SSE 8.1 mph - 0.00 in Rain Light Rain
3:53 AM 41.0 °F 34.7 °F 36.0 °F 82% 29.84 in 10.0 mi ENE 10.4 mph - 0.01 in Rain Light Rain
4:53 AM 39.9 °F 35.1 °F 37.0 °F 89% 29.87 in 10.0 mi ESE 6.9 mph - 0.00 in   Overcast
5:53 AM 39.0 °F 34.8 °F 37.0 °F 93% 29.90 in 10.0 mi East 5.8 mph - N/A   Mostly Cloudy
6:53 AM 39.9 °F 35.8 °F 37.0 °F 89% 29.92 in 10.0 mi East 5.8 mph - N/A   Mostly Cloudy
7:53 AM 39.0 °F 34.8 °F 37.0 °F 93% 29.95 in 10.0 mi East 5.8 mph - N/A   Mostly Cloudy
8:53 AM 41.0 °F 35.8 °F 37.0 °F 86% 29.98 in 10.0 mi ESE 8.1 mph - N/A   Mostly Cloudy
9:53 AM 42.1 °F - 37.0 °F 82% 30.01 in 10.0 mi Calm Calm - N/A   Mostly Cloudy
10:53 AM 42.1 °F - 39.0 °F 89% 30.04 in 10.0 mi Calm Calm - N/A   Mostly Cloudy
11:53 AM 42.1 °F 39.2 °F 37.9 °F 85% 30.07 in 10.0 mi NNW 4.6 mph - N/A   Overcast
12:53 PM 43.0 °F 41.3 °F 36.0 °F 76% 30.09 in 10.0 mi NNW 3.5 mph - N/A   Overcast
1:53 PM 43.0 °F 41.3 °F 36.0 °F 76% 30.11 in 10.0 mi WNW 3.5 mph - N/A   Scattered Clouds
2:53 PM 44.1 °F - 35.1 °F 71% 30.13 in 10.0 mi Calm Calm - N/A   Mostly Cloudy
3:53 PM 42.1 °F 39.2 °F 32.0 °F 67% 30.15 in 10.0 mi ESE 4.6 mph - N/A   Partly Cloudy
4:53 PM 41.0 °F 39.0 °F 33.1 °F 73% 30.17 in 10.0 mi SSE 3.5 mph - N/A   Clear
5:53 PM 36.0 °F - 34.0 °F 93% 30.19 in 10.0 mi Calm Calm - N/A   Clear
6:53 PM 34.0 °F - 33.1 °F 96% 30.20 in 10.0 mi Calm Calm - N/A   Clear
7:53 PM 34.0 °F 29.8 °F 33.1 °F 96% 30.22 in 10.0 mi East 4.6 mph - N/A   Clear
8:53 PM 33.1 °F - 32.0 °F 96% 30.24 in 10.0 mi Calm Calm - N/A   Clear
9:53 PM 33.1 °F - 33.1 °F 100% 30.25 in 10.0 mi Calm Calm - N/A   Clear
10:53 PM 34.0 °F - 33.1 °F 96% 30.26 in 10.0 mi Calm Calm - N/A   Clear
11:53 PM 33.1 °F - 32.0 °F 96% 30.28 in 10.0 mi Calm Calm - N/A   Clear